Time,TemperatureF,DewpointF,PressureIn,WindDirection,WindDirectionDegrees,WindSpeedMPH,WindSpeedGustMPH,Humidity,HourlyPrecipIn,Conditions,Clouds,dailyrainin,SoftwareType,DateUTC
2013-01-05 00:09:00,41.0,41.0,30.15,West,263,0.0,0.0,98,0.00,,,0.00,weatherlink.com 1.10,2013-01-05 08:09:00,
2013-01-05 00:24:00,40.8,40.0,30.14,West,262,0.0,0.0,98,0.00,,,0.00,weatherlink.com 1.10,2013-01-05 08:24:00,
2013-01-05 00:39:00,40.8,40.0,30.14,West,262,0.0,0.0,98,0.00,,,0.00,weatherlink.com 1.10,2013-01-05 08:39:00,
2013-01-05 00:54:00,41.0,41.0,30.14,West,263,0.0,0.0,98,0.00,,,0.00,weatherlink.com 1.10,2013-01-05 08:54:00,
2013-01-05 01:09:00,41.0,41.0,30.14,West,263,0.0,0.0,98,0.00,,,0.00,weatherlink.com 1.10,2013-01-05 09:09:00,
2013-01-05 01:24:00,40.8,40.0,30.14,West,263,0.0,0.0,98,0.00,,,0.00,weatherlink.com 1.10,2013-01-05 09:24:00,
2013-01-05 01:39:00,40.6,40.0,30.14,West,263,0.0,0.0,98,0.00,,,0.00,weatherlink.com 1.10,2013-01-05 09:39:00,
2013-01-05 01:54:00,40.8,40.0,30.14,West,263,0.0,0.0,98,0.00,,,0.00,weatherlink.com 1.10,2013-01-05 09:54:00,
2013-01-05 02:09:00,40.6,40.0,30.14,West,263,0.0,0.0,98,0.00,,,0.00,weatherlink.com 1.10,2013-01-05 10:09:00,
2013-01-05 02:24:00,40.7,41.0,30.15,West,263,0.0,0.0,99,0.00,,,0.00,weatherlink.com 1.10,2013-01-05 10:24:00,
2013-01-05 02:39:00,40.6,40.0,30.15,West,263,0.0,0.0,98,0.00,,,0.00,weatherlink.com 1.10,2013-01-05 10:39:00,
2013-01-05 02:55:00,40.2,40.0,30.15,West,263,0.0,0.0,98,0.00,,,0.00,weatherlink.com 1.10,2013-01-05 10:55:00,
2013-01-05 03:09:00,40.4,40.0,30.16,West,263,0.0,0.0,99,0.00,,,0.00,weatherlink.com 1.10,2013-01-05 11:09:00,
2013-01-05 03:24:00,40.6,40.0,30.15,SSE,152,0.0,1.0,99,0.00,,,0.00,weatherlink.com 1.10,2013-01-05 11:24:00,
2013-01-05 03:39:00,40.7,41.0,30.15,SSE,162,0.0,0.0,99,0.00,,,0.00,weatherlink.com 1.10,2013-01-05 11:39:00,
2013-01-05 03:54:00,40.7,41.0,30.14,SSE,162,0.0,0.0,99,0.00,,,0.00,weatherlink.com 1.10,2013-01-05 11:54:00,
2013-01-05 04:09:00,40.7,41.0,30.15,SSW,203,0.0,0.0,99,0.00,,,0.00,weatherlink.com 1.10,2013-01-05 12:09:00,
2013-01-05 04:24:00,40.7,41.0,30.15,SSW,200,0.0,0.0,99,0.00,,,0.00,weatherlink.com 1.10,2013-01-05 12:24:00,
2013-01-05 04:39:00,40.8,41.0,30.14,SSW,193,0.0,1.0,99,0.00,,,0.00,weatherlink.com 1.10,2013-01-05 12:39:00,
2013-01-05 04:54:00,40.9,41.0,30.14,SSW,204,0.0,0.0,99,0.00,,,0.00,weatherlink.com 1.10,2013-01-05 12:54:00,
2013-01-05 05:09:00,41.0,41.0,30.15,SSE,153,0.0,1.0,99,0.00,,,0.00,weatherlink.com 1.10,2013-01-05 13:09:00,
2013-01-05 05:25:00,41.0,41.0,30.15,SW,235,0.0,1.0,99,0.00,,,0.00,weatherlink.com 1.10,2013-01-05 13:25:00,
2013-01-05 05:39:00,40.9,41.0,30.15,SW,235,0.0,0.0,99,0.00,,,0.00,weatherlink.com 1.10,2013-01-05 13:39:00,
2013-01-05 05:54:00,41.0,41.0,30.15,SSW,203,0.0,1.0,99,0.00,,,0.00,weatherlink.com 1.10,2013-01-05 13:54:00,
2013-01-05 06:09:00,41.1,41.0,30.15,SE,137,0.0,0.0,99,0.00,,,0.00,weatherlink.com 1.10,2013-01-05 14:09:00,
2013-01-05 06:24:00,41.2,41.0,30.15,SSW,205,0.0,1.0,99,0.00,,,0.00,weatherlink.com 1.10,2013-01-05 14:24:00,
2013-01-05 06:39:00,41.1,41.0,30.15,WSW,239,0.0,0.0,99,0.00,,,0.00,weatherlink.com 1.10,2013-01-05 14:39:00,
2013-01-05 06:54:00,41.1,41.0,30.14,ESE,105,0.0,1.0,99,0.00,,,0.00,weatherlink.com 1.10,2013-01-05 14:54:00,
2013-01-05 07:09:00,41.1,41.0,30.15,SSE,152,1.0,2.0,99,0.00,,,0.00,weatherlink.com 1.10,2013-01-05 15:09:00,
2013-01-05 07:24:00,41.2,41.0,30.15,West,278,0.0,3.0,99,0.00,,,0.00,weatherlink.com 1.10,2013-01-05 15:24:00,
2013-01-05 07:39:00,41.3,41.0,30.15,West,278,0.0,0.0,99,0.00,,,0.00,weatherlink.com 1.10,2013-01-05 15:39:00,
2013-01-05 07:54:00,41.4,41.0,30.16,WSW,243,0.0,1.0,99,0.00,,,0.00,weatherlink.com 1.10,2013-01-05 15:54:00,
2013-01-05 08:09:00,41.4,41.0,30.16,ESE,105,0.0,0.0,99,0.00,,,0.00,weatherlink.com 1.10,2013-01-05 16:09:00,
2013-01-05 08:24:00,41.5,41.0,30.16,SW,233,0.0,1.0,99,0.00,,,0.00,weatherlink.com 1.10,2013-01-05 16:24:00,
2013-01-05 08:39:00,41.5,41.0,30.16,SSE,158,0.0,1.0,99,0.01,,,0.01,weatherlink.com 1.10,2013-01-05 16:39:00,
2013-01-05 08:54:00,41.7,42.0,30.17,SSW,208,0.0,1.0,99,0.01,,,0.01,weatherlink.com 1.10,2013-01-05 16:54:00,
2013-01-05 09:09:00,41.9,42.0,30.18,SE,146,0.0,1.0,99,0.02,,,0.02,weatherlink.com 1.10,2013-01-05 17:09:00,
2013-01-05 09:24:00,42.2,42.0,30.18,ESE,105,0.0,2.0,99,0.02,,,0.02,weatherlink.com 1.10,2013-01-05 17:24:00,
2013-01-05 09:39:00,42.2,42.0,30.17,SE,139,1.0,2.0,99,0.02,,,0.03,weatherlink.com 1.10,2013-01-05 17:39:00,
2013-01-05 09:54:00,42.4,42.0,30.17,SE,132,0.0,2.0,99,0.02,,,0.03,weatherlink.com 1.10,2013-01-05 17:54:00,
2013-01-05 10:09:00,42.8,43.0,30.18,WSW,239,1.0,3.0,99,0.01,,,0.03,weatherlink.com 1.10,2013-01-05 18:09:00,
2013-01-05 10:24:00,43.0,43.0,30.18,SSW,194,1.0,1.0,99,0.01,,,0.03,weatherlink.com 1.10,2013-01-05 18:24:00,
2013-01-05 10:39:00,43.0,43.0,30.18,SE,143,0.0,1.0,98,0.00,,,0.03,weatherlink.com 1.10,2013-01-05 18:39:00,
2013-01-05 10:54:00,43.3,43.0,30.17,SE,146,0.0,1.0,98,0.00,,,0.03,weatherlink.com 1.10,2013-01-05 18:54:00,
2013-01-05 11:10:00,43.7,43.0,30.17,SE,145,1.0,2.0,98,0.00,,,0.03,weatherlink.com 1.10,2013-01-05 19:10:00,
2013-01-05 11:25:00,43.5,43.0,30.16,SSE,155,1.0,3.0,98,0.00,,,0.03,weatherlink.com 1.10,2013-01-05 19:25:00,
2013-01-05 11:40:00,43.9,43.0,30.16,SSE,166,0.0,3.0,98,0.00,,,0.03,weatherlink.com 1.10,2013-01-05 19:40:00,
2013-01-05 11:55:00,44.3,44.0,30.16,South,183,0.0,0.0,98,0.00,,,0.03,weatherlink.com 1.10,2013-01-05 19:55:00,
2013-01-05 12:10:00,44.3,44.0,30.16,SSE,158,0.0,1.0,97,0.00,,,0.03,weatherlink.com 1.10,2013-01-05 20:10:00,
2013-01-05 12:25:00,44.4,44.0,30.16,SW,235,0.0,2.0,97,0.00,,,0.03,weatherlink.com 1.10,2013-01-05 20:25:00,
2013-01-05 12:40:00,44.4,44.0,30.15,SE,146,0.0,1.0,97,0.00,,,0.03,weatherlink.com 1.10,2013-01-05 20:40:00,
2013-01-05 12:55:00,44.4,43.0,30.13,SSE,158,0.0,1.0,96,0.00,,,0.03,weatherlink.com 1.10,2013-01-05 20:55:00,
2013-01-05 13:10:00,44.7,44.0,30.13,SE,129,0.0,2.0,96,0.00,,,0.03,weatherlink.com 1.10,2013-01-05 21:10:00,
2013-01-05 13:25:00,44.6,44.0,30.12,SE,124,0.0,2.0,96,0.00,,,0.03,weatherlink.com 1.10,2013-01-05 21:25:00,
2013-01-05 13:40:00,44.7,43.0,30.13,SSE,153,0.0,1.0,95,0.00,,,0.03,weatherlink.com 1.10,2013-01-05 21:40:00,
2013-01-05 13:55:00,44.5,42.0,30.12,SE,133,1.0,2.0,92,0.00,,,0.03,weatherlink.com 1.10,2013-01-05 21:55:00,
2013-01-05 14:10:00,44.4,42.0,30.12,SE,137,1.0,4.0,90,0.00,,,0.03,weatherlink.com 1.10,2013-01-05 22:10:00,
2013-01-05 14:25:00,44.3,42.0,30.12,SE,143,0.0,3.0,90,0.00,,,0.03,weatherlink.com 1.10,2013-01-05 22:25:00,
2013-01-05 14:40:00,44.2,42.0,30.12,SSE,151,0.0,1.0,92,0.00,,,0.03,weatherlink.com 1.10,2013-01-05 22:40:00,
2013-01-05 14:55:00,44.2,42.0,30.12,ESE,117,0.0,1.0,93,0.00,,,0.03,weatherlink.com 1.10,2013-01-05 22:55:00,
2013-01-05 15:10:00,44.3,43.0,30.12,WSW,240,0.0,1.0,94,0.00,,,0.03,weatherlink.com 1.10,2013-01-05 23:10:00,
2013-01-05 15:25:00,44.3,43.0,30.12,ESE,113,0.0,0.0,95,0.00,,,0.03,weatherlink.com 1.10,2013-01-05 23:25:00,
2013-01-05 15:40:00,44.1,43.0,30.11,SE,124,0.0,1.0,96,0.00,,,0.03,weatherlink.com 1.10,2013-01-05 23:40:00,
2013-01-05 15:55:00,43.8,43.0,30.11,SE,131,0.0,1.0,96,0.00,,,0.03,weatherlink.com 1.10,2013-01-05 23:55:00,
2013-01-05 16:10:00,43.6,43.0,30.11,SE,142,1.0,1.0,96,0.00,,,0.03,weatherlink.com 1.10,2013-01-06 00:10:00,
2013-01-05 16:25:00,43.5,43.0,30.10,SE,140,0.0,2.0,96,0.00,,,0.03,weatherlink.com 1.10,2013-01-06 00:25:00,
2013-01-05 16:40:00,43.2,42.0,30.10,SW,219,0.0,1.0,96,0.00,,,0.03,weatherlink.com 1.10,2013-01-06 00:40:00,
2013-01-05 16:55:00,42.8,42.0,30.09,SE,146,0.0,1.0,97,0.00,,,0.03,weatherlink.com 1.10,2013-01-06 00:55:00,
2013-01-05 17:10:00,42.3,42.0,30.09,SSE,150,0.0,1.0,97,0.00,,,0.03,weatherlink.com 1.10,2013-01-06 01:10:00,
2013-01-05 17:25:00,41.9,41.0,30.09,SSE,150,0.0,1.0,97,0.00,,,0.03,weatherlink.com 1.10,2013-01-06 01:25:00,
2013-01-05 17:40:00,41.9,41.0,30.10,SSW,199,0.0,1.0,98,0.00,,,0.03,weatherlink.com 1.10,2013-01-06 01:40:00,
2013-01-05 17:55:00,42.1,42.0,30.10,SSE,158,0.0,2.0,98,0.00,,,0.03,weatherlink.com 1.10,2013-01-06 01:55:00,
2013-01-05 18:10:00,42.1,42.0,30.10,SSE,148,0.0,2.0,98,0.00,,,0.03,weatherlink.com 1.10,2013-01-06 02:10:00,
2013-01-05 18:25:00,41.7,41.0,30.10,SSE,150,0.0,1.0,98,0.00,,,0.03,weatherlink.com 1.10,2013-01-06 02:25:00,
2013-01-05 18:40:00,41.3,41.0,30.10,SSE,150,0.0,0.0,98,0.00,,,0.03,weatherlink.com 1.10,2013-01-06 02:40:00,
2013-01-05 18:55:00,41.1,41.0,30.10,SSW,193,0.0,1.0,98,0.00,,,0.03,weatherlink.com 1.10,2013-01-06 02:55:00,
2013-01-05 19:10:00,41.3,41.0,30.10,SSE,158,0.0,2.0,98,0.00,,,0.03,weatherlink.com 1.10,2013-01-06 03:10:00,
2013-01-05 19:25:00,41.4,41.0,30.10,SW,215,0.0,1.0,98,0.01,,,0.04,weatherlink.com 1.10,2013-01-06 03:25:00,
2013-01-05 19:40:00,41.5,41.0,30.10,SSE,151,0.0,2.0,98,0.02,,,0.05,weatherlink.com 1.10,2013-01-06 03:40:00,
2013-01-05 19:55:00,41.3,41.0,30.10,South,174,0.0,1.0,98,0.02,,,0.05,weatherlink.com 1.10,2013-01-06 03:55:00,
2013-01-05 20:10:00,41.1,41.0,30.10,SSE,153,0.0,2.0,98,0.03,,,0.06,weatherlink.com 1.10,2013-01-06 04:10:00,
2013-01-05 20:25:00,41.2,41.0,30.10,SSE,157,0.0,2.0,98,0.02,,,0.06,weatherlink.com 1.10,2013-01-06 04:25:00,
2013-01-05 20:40:00,41.2,41.0,30.10,SE,140,0.0,1.0,98,0.02,,,0.07,weatherlink.com 1.10,2013-01-06 04:40:00,
2013-01-05 20:55:00,41.3,41.0,30.10,SSW,208,0.0,4.0,98,0.03,,,0.08,weatherlink.com 1.10,2013-01-06 04:55:00,
2013-01-05 21:25:00,41.4,41.0,30.10,SSE,153,0.0,3.0,98,0.04,,,0.10,weatherlink.com 1.10,2013-01-06 05:25:00,
2013-01-05 21:45:00,41.5,41.0,30.10,SSE,150,2.0,3.0,98,0.04,,,0.11,weatherlink.com 1.10,2013-01-06 05:45:00,
2013-01-05 21:56:00,41.6,41.0,30.10,SSE,155,2.0,5.0,98,0.03,,,0.11,weatherlink.com 1.10,2013-01-06 05:56:00,
2013-01-05 22:11:00,41.7,41.0,30.10,SSE,148,0.0,4.0,98,0.02,,,0.11,weatherlink.com 1.10,2013-01-06 06:11:00,
2013-01-05 22:26:00,41.8,41.0,30.11,SW,233,1.0,3.0,98,0.01,,,0.11,weatherlink.com 1.10,2013-01-06 06:26:00,
2013-01-05 22:41:00,41.9,41.0,30.11,SW,219,0.0,4.0,98,0.00,,,0.11,weatherlink.com 1.10,2013-01-06 06:41:00,
2013-01-05 22:56:00,41.9,41.0,30.11,SE,124,0.0,2.0,98,0.00,,,0.11,weatherlink.com 1.10,2013-01-06 06:56:00,
2013-01-05 23:11:00,41.9,41.0,30.11,SSW,209,1.0,6.0,98,0.00,,,0.11,weatherlink.com 1.10,2013-01-06 07:11:00,
2013-01-05 23:26:00,42.0,42.0,30.11,SW,233,0.0,4.0,98,0.00,,,0.11,weatherlink.com 1.10,2013-01-06 07:26:00,
2013-01-05 23:41:00,42.0,41.0,30.12,SW,225,0.0,7.0,97,0.00,,,0.11,weatherlink.com 1.10,2013-01-06 07:41:00,
2013-01-05 23:56:00,42.0,41.0,30.12,SW,232,2.0,9.0,97,0.00,,,0.11,weatherlink.com 1.10,2013-01-06 07:56:00,